Total_Precipitation_Accumulation
1.51 1.33 1.81 2.50 2.25 1.64 1.22 0.81 0.52 0.42 0.28 0.20 0.12 0.12 0.25 0.55 0.79 1.03 0.82 0.68 0.50 0.38 0.31 0.41 0.58 0.52 0.48 0.47 0.42 0.39 0.41 0.39 0.34 0.36 0.34 0.34 0.31 0.29 0.28 0.26 0.24 0.23 0.23 0.23 0.29 0.37 0.42 0.44 0.53
1.14 1.51 2.06 2.63 2.05 1.48 1.30 0.82 0.52 0.36 0.18 0.11 0.07 0.07 0.16 0.23 0.20 0.45 0.83 0.93 0.47 0.32 0.30 0.41 0.59 0.59 0.57 0.53 0.50 0.52 0.52 0.46 0.45 0.48 0.44 0.43 0.39 0.33 0.31 0.31 0.29 0.28 0.29 0.30 0.33 0.39 0.47 0.51 0.54
1.35 2.13 2.50 2.25 1.52 1.41 1.28 0.79 0.46 0.26 0.12 0.08 0.06 0.05 0.10 0.22 0.27 0.51 0.86 0.72 0.45 0.34 0.36 0.55 0.71 0.69 0.67 0.61 0.60 0.65 0.62 0.57 0.55 0.54 0.53 0.54 0.49 0.46 0.39 0.36 0.36 0.36 0.40 0.44 0.42 0.45 0.51 0.57 0.58
1.44 2.25 2.25 1.69 1.44 1.23 0.88 0.60 0.36 0.28 0.18 0.06 0.05 0.08 0.13 0.26 0.40 0.56 0.63 0.55 0.50 0.47 0.42 0.54 0.68 0.73 0.72 0.61 0.62 0.70 0.65 0.61 0.56 0.50 0.52 0.53 0.51 0.51 0.45 0.46 0.48 0.45 0.48 0.54 0.55 0.58 0.59 0.60 0.61
1.80 2.18 1.86 1.45 1.36 1.04 0.72 0.51 0.30 0.28 0.24 0.09 0.05 0.16 0.23 0.35 0.46 0.53 0.56 0.49 0.48 0.46 0.37 0.42 0.65 0.70 0.68 0.65 0.69 0.77 0.70 0.64 0.55 0.50 0.54 0.56 0.55 0.54 0.52 0.54 0.54 0.52 0.50 0.54 0.58 0.61 0.61 0.58 0.60
1.90 1.88 1.63 1.39 1.35 1.13 0.83 0.53 0.33 0.29 0.21 0.11 0.10 0.24 0.31 0.40 0.56 0.62 0.65 0.73 0.72 0.69 0.55 0.50 0.67 0.71 0.69 0.72 0.77 0.84 0.84 0.72 0.60 0.55 0.56 0.54 0.55 0.55 0.56 0.57 0.58 0.57 0.56 0.59 0.58 0.58 0.57 0.51 0.51
1.80 1.70 1.40 1.08 1.15 1.32 0.96 0.56 0.39 0.36 0.29 0.20 0.14 0.29 0.39 0.47 0.55 0.67 0.82 0.95 1.03 1.05 0.94 0.83 0.77 0.71 0.73 0.80 0.78 0.93 1.07 0.92 0.73 0.65 0.65 0.58 0.53 0.53 0.53 0.53 0.59 0.59 0.61 0.59 0.58 0.61 0.57 0.52 0.49
1.47 1.37 1.12 1.05 1.15 1.36 0.89 0.57 0.42 0.39 0.31 0.18 0.16 0.28 0.43 0.41 0.50 0.67 0.84 0.93 0.97 1.02 0.94 0.94 1.01 1.00 0.99 1.00 1.07 1.18 1.50 1.38 1.00 0.81 0.69 0.65 0.57 0.55 0.58 0.55 0.58 0.64 0.66 0.67 0.70 0.68 0.65 0.64 0.59
1.46 1.49 1.34 1.46 1.45 1.23 0.76 0.61 0.47 0.33 0.30 0.19 0.16 0.24 0.30 0.32 0.44 0.52 0.62 0.69 0.74 0.77 0.81 0.87 0.93 0.94 0.97 0.96 1.13 1.38 1.66 1.73 1.38 1.10 0.95 0.78 0.54 0.57 0.65 0.58 0.68 0.73 0.75 0.78 0.84 0.83 0.77 0.75 0.66
1.42 1.39 1.24 1.25 1.04 0.75 0.61 0.54 0.45 0.35 0.35 0.29 0.27 0.28 0.30 0.33 0.44 0.50 0.55 0.63 0.63 0.59 0.57 0.58 0.62 0.67 0.72 0.77 1.04 1.27 1.33 1.53 1.31 1.28 1.13 0.98 0.92 0.87 0.69 0.64 0.79 0.85 0.85 0.84 0.89 0.94 0.79 0.66 0.52
1.24 1.10 0.95 0.91 0.67 0.47 0.41 0.38 0.34 0.28 0.30 0.28 0.30 0.30 0.34 0.37 0.43 0.46 0.49 0.51 0.53 0.55 0.52 0.45 0.46 0.48 0.54 0.67 0.88 1.10 1.23 1.40 1.41 1.39 1.33 1.32 1.27 0.94 0.77 0.84 0.88 0.88 0.88 0.77 0.82 0.82 0.63 0.50 0.46
1.18 0.92 0.79 0.70 0.48 0.42 0.37 0.31 0.25 0.18 0.15 0.14 0.18 0.23 0.31 0.38 0.39 0.37 0.40 0.44 0.45 0.50 0.56 0.49 0.37 0.37 0.39 0.47 0.66 0.86 1.07 1.26 1.31 1.14 1.06 1.19 1.20 1.01 0.88 1.00 1.08 1.05 1.00 0.99 1.00 0.90 0.74 0.55 0.49
1.13 1.03 0.81 0.66 0.46 0.42 0.33 0.27 0.20 0.14 0.10 0.11 0.16 0.25 0.34 0.41 0.42 0.42 0.38 0.40 0.41 0.47 0.54 0.56 0.48 0.40 0.39 0.44 0.51 0.58 0.87 1.05 1.20 1.25 1.03 1.15 1.19 1.11 0.98 0.92 1.09 1.05 1.03 1.04 1.04 1.00 0.88 0.75 0.60
1.06 0.90 0.61 0.54 0.45 0.40 0.33 0.27 0.22 0.16 0.15 0.12 0.15 0.24 0.31 0.40 0.45 0.47 0.43 0.39 0.36 0.40 0.47 0.52 0.55 0.54 0.50 0.49 0.51 0.51 0.56 0.67 0.79 0.76 0.73 0.92 1.03 1.00 1.00 0.86 0.92 0.98 1.08 1.24 1.23 1.05 0.96 0.86 0.73
0.79 0.72 0.63 0.49 0.43 0.38 0.36 0.34 0.23 0.18 0.19 0.19 0.16 0.20 0.28 0.34 0.36 0.39 0.39 0.36 0.35 0.39 0.42 0.47 0.54 0.61 0.62 0.63 0.71 0.64 0.59 0.64 0.64 0.60 0.61 0.72 0.82 0.84 0.97 0.94 0.90 0.91 1.09 1.25 1.33 1.22 1.12 0.93 0.83
0.67 0.68 0.80 0.60 0.52 0.47 0.48 0.38 0.18 0.20 0.17 0.17 0.14 0.13 0.18 0.25 0.28 0.31 0.34 0.36 0.36 0.37 0.37 0.39 0.43 0.48 0.53 0.60 0.68 0.73 0.73 0.75 0.71 0.74 0.70 0.66 0.79 0.91 1.03 1.05 0.96 0.95 1.12 1.27 1.36 1.39 1.35 1.20 1.07
0.66 0.59 0.57 0.52 0.45 0.41 0.36 0.26 0.13 0.13 0.11 0.10 0.08 0.06 0.08 0.11 0.17 0.22 0.25 0.30 0.35 0.36 0.32 0.31 0.32 0.32 0.35 0.42 0.54 0.65 0.72 0.80 0.86 0.88 0.86 0.84 0.87 0.91 1.05 1.19 1.19 1.18 1.24 1.28 1.29 1.31 1.25 1.21 1.16
0.55 0.41 0.34 0.34 0.25 0.29 0.25 0.17 0.12 0.08 0.06 0.04 0.04 0.03 0.03 0.04 0.06 0.11 0.16 0.23 0.28 0.30 0.30 0.30 0.31 0.30 0.27 0.31 0.45 0.56 0.63 0.71 0.87 0.94 1.00 1.27 1.35 1.14 1.10 1.20 1.22 1.24 1.35 1.35 1.45 1.53 1.37 1.22 1.25
0.40 0.25 0.19 0.19 0.15 0.13 0.11 0.08 0.06 0.04 0.02 0.01 0.01 0.02 0.02 0.01 0.02 0.02 0.04 0.08 0.15 0.15 0.15 0.18 0.24 0.31 0.29 0.26 0.33 0.44 0.53 0.67 0.81 0.97 1.04 1.27 1.37 1.28 1.29 1.29 1.27 1.26 1.29 1.33 1.49 1.71 1.59 1.40 1.31
0.33 0.22 0.13 0.13 0.11 0.07 0.04 0.04 0.04 0.03 0.02 0.01 0.01 0.01 0.02 0.02 0.02 0.01 0.02 0.02 0.03 0.05 0.07 0.11 0.15 0.24 0.32 0.36 0.41 0.53 0.71 0.83 0.93 1.06 1.13 1.24 1.26 1.25 1.18 1.32 1.40 1.34 1.40 1.46 1.60 1.75 1.80 1.62 1.46
0.20 0.19 0.14 0.11 0.09 0.05 0.03 0.03 0.03 0.03 0.03 0.03 0.03 0.03 0.03 0.03 0.03 0.02 0.02 0.02 0.02 0.03 0.06 0.11 0.19 0.33 0.50 0.66 0.88 1.13 1.41 1.53 1.42 1.27 1.34 1.47 1.53 1.49 1.42 1.48 1.61 1.52 1.52 1.56 1.60 1.62 1.90 1.95 1.76
0.15 0.10 0.08 0.06 0.06 0.04 0.02 0.02 0.03 0.06 0.07 0.08 0.09 0.09 0.09 0.08 0.07 0.06 0.05 0.05 0.07 0.11 0.18 0.28 0.40 0.57 0.74 0.95 1.17 1.43 1.66 1.82 1.84 1.86 1.89 1.87 1.82 1.70 1.58 1.58 1.62 1.63 1.67 1.59 1.49 1.61 1.91 2.23 2.16
0.13 0.09 0.04 0.03 0.03 0.02 0.01 0.02 0.05 0.12 0.18 0.23 0.25 0.26 0.23 0.19 0.19 0.18 0.16 0.16 0.18 0.28 0.41 0.53 0.76 0.93 1.06 1.13 1.23 1.45 1.56 1.63 1.74 1.88 1.93 1.93 1.84 1.71 1.56 1.51 1.54 1.60 1.68 1.67 1.71 1.83 2.08 2.29 2.42
0.11 0.07 0.03 0.02 0.02 0.02 0.01 0.05 0.15 0.24 0.32 0.40 0.40 0.37 0.33 0.26 0.24 0.27 0.30 0.31 0.35 0.57 0.81 0.96 1.07 1.16 1.16 1.14 1.16 1.30 1.43 1.52 1.60 1.73 1.79 1.73 1.59 1.54 1.51 1.49 1.45 1.39 1.46 1.56 1.71 1.94 2.05 2.19 2.36
0.06 0.05 0.06 0.06 0.05 0.05 0.04 0.12 0.26 0.28 0.27 0.31 0.34 0.33 0.29 0.22 0.19 0.24 0.33 0.46 0.65 0.90 1.14 1.28 1.28 1.18 1.04 1.02 1.09 1.15 1.30 1.44 1.48 1.49 1.51 1.45 1.38 1.34 1.36 1.37 1.31 1.21 1.20 1.31 1.48 1.68 1.72 1.83 1.99
0.03 0.03 0.08 0.10 0.06 0.07 0.11 0.27 0.39 0.30 0.21 0.17 0.18 0.18 0.20 0.25 0.31 0.32 0.38 0.57 0.85 1.12 1.37 1.64 1.62 1.38 1.16 1.10 1.17 1.18 1.27 1.33 1.31 1.25 1.26 1.26 1.22 1.17 1.11 1.14 1.14 1.11 1.09 1.11 1.20 1.30 1.36 1.45 1.63
0.02 0.02 0.04 0.09 0.06 0.06 0.12 0.27 0.29 0.20 0.15 0.13 0.15 0.18 0.24 0.31 0.41 0.49 0.61 0.71 0.92 1.14 1.48 1.76 1.82 1.62 1.46 1.37 1.31 1.31 1.21 1.12 1.05 0.97 0.96 0.99 1.00 0.94 0.90 0.97 1.06 1.12 1.04 0.97 1.03 1.08 1.12 1.23 1.33
0.01 0.03 0.06 0.13 0.14 0.12 0.15 0.24 0.20 0.11 0.10 0.13 0.19 0.24 0.29 0.37 0.43 0.58 0.84 1.05 1.28 1.23 1.37 1.61 1.54 1.48 1.46 1.47 1.46 1.35 1.20 1.07 1.03 0.95 0.92 0.89 0.94 0.85 0.85 0.88 0.89 0.90 0.88 0.91 0.99 1.07 1.16 1.15 1.19
0.03 0.05 0.06 0.12 0.17 0.20 0.29 0.34 0.22 0.18 0.20 0.26 0.32 0.35 0.38 0.46 0.51 0.65 0.82 0.97 1.16 1.27 1.29 1.33 1.32 1.33 1.29 1.22 1.18 1.06 0.86 0.75 0.76 0.77 0.73 0.68 0.71 0.66 0.68 0.66 0.70 0.81 0.80 0.80 0.88 0.94 0.96 1.03 1.13
0.10 0.12 0.12 0.20 0.27 0.31 0.45 0.51 0.33 0.33 0.38 0.45 0.52 0.54 0.58 0.59 0.62 0.72 0.80 0.95 1.04 1.05 1.10 1.17 1.10 1.09 1.04 0.93 0.84 0.72 0.57 0.51 0.56 0.57 0.52 0.44 0.47 0.44 0.51 0.55 0.54 0.70 0.86 0.88 0.91 0.92 0.87 0.91 0.96